Regional Weather Roundup
Issued by NWS Northern Indiana

Home | Current Version | Previous Version | Graphics & Text | Print | Product List | Glossary On
Versions: 1 2 3 4 5 6 7 8 9 10 11 12 13 14 15 16 17 18 19 20 21 22 23 24 25 26 27 28 29 30 31 32 33 34 35 36 37 38 39 40 41 42 43 44 45 46 47 48 49 50
000
ASUS43 KIWX 290110
RWRIWX

KIWX WEATHER ROUNDUP
NATIONAL WEATHER SERVICE NORTHERN INDIANA
900 PM EDT WED JUN 28 2017

NOTE: "FAIR" INDICATES FEW OR NO CLOUDS BELOW 12,000 FEET WITH NO
SIGNIFICANT WEATHER AND/OR OBSTRUCTIONS TO VISIBILITY.

* THESE STATIONS ARE NOT UNDER NWS QUALITY CONTROL. THEY ALSO MAY NOT
  REPORT WEATHER SUCH AS PRECIPITATION OR FOG.

INZ001>027-290200-
NORTHERN INDIANA

CITY           SKY/WX    TMP DP  RH WIND       PRES   REMARKS
GARY*          MOCLDY    81  57  44 S14G28    29.80S
VALPARAISO     MOCLDY    78  58  49 S18G25    29.85R
MICHIGAN CITY* CLOUDY    77  55  47 S14G24    29.82S
LAPORTE*       MOCLDY    76  58  52 S13G23    29.85R
KNOX*          PTCLDY    77  45  31 S15G24    29.86R
SOUTH BEND     PTCLDY    75  57  53 S16G28    29.85S
ELKHART*       CLOUDY    75  54  46 S13G21    29.85F
GOSHEN         PTCLDY    75  53  46 S15       29.87F
MONTICELLO*    CLEAR     77  56  49 S8G14     29.89S
LOGANSPORT*    CLEAR     73  55  53 S12G18    29.92R
ROCHESTER*     PTCLDY    77  55  47 S10       29.90F
WARSAW*        CLOUDY    73  54  49 S6        29.89F
AUBURN*        MOCLDY    73  50  43 S3        29.93F
FORT WAYNE     CLOUDY    74  53  48 S10       29.94F
HUNTINGTON*    PTCLDY    74  51  44 S8        29.93F
PERU/GRISSOM   CLOUDY    75  57  54 S13       29.91F
MARION*        CLOUDY    73  52  46 S13       29.95F

$$
INZ028>050-290200-
CENTRAL INDIANA

CITY           SKY/WX    TMP DP  RH WIND       PRES   REMARKS
LAFAYETTE      CLEAR     76  59  55 S7        29.90S
KOKOMO*        CLOUDY    76  56  49 S14       29.93F
MUNCIE*        PTCLDY    76  51  41 S10       29.96F
INDIANAPOLIS   MOCLDY    75  57  53 S14       29.94F

$$
MIZ043>046-050>051-056>058-064>065-071>073-077>080-290200-
SOUTHWEST LOWER MICHIGAN

CITY           SKY/WX    TMP DP  RH WIND       PRES   REMARKS
BATTLE CREEK   PTCLDY    73  51  46 S15       29.86F
BENTON HARBOR  CLOUDY    77  55  46 S14G24    29.82R
COLDWATER*     CLOUDY    73  49  43 S9G16     29.89F
HILLSDALE*     CLOUDY    72  50  46 S6        29.92F
HOLLAND        MOCLDY    67  60  78 SE8       29.80F
GRAND RAPIDS   CLOUDY    66  61  84 E8        29.84F
KALAMAZOO      CLOUDY    74  51  44 S12       29.85F
STURGIS*       PTCLDY    73  54  51 S13G20    29.87F
THREE RIVERS*  FAIR      73  53  49 S12       29.87F

$$
OHZ001>008-015>018-024>025-290200-
NORTHWEST OHIO

CITY           SKY/WX    TMP DP  RH WIND       PRES   REMARKS
WAUSEON*       FAIR      75  50  41 S13G21    29.94F
DEFIANCE       CLOUDY    74  50  42 S9G21     29.93F
FINDLAY        PTCLDY    73  51  46 S13       29.97F
TOLEDO EXPRESS CLOUDY    73  52  47 S6        29.94F
TOLEDO METCALF PTCLDY    75  52  44 S14       29.96F
LIMA           CLOUDY    73  55  53 S8        29.98F

$$
AND FOR LAKE MICHIGAN COASTAL AND OPEN LAKE BUOY OBSERVATIONS

STATION/POSITION TEMP    WIND        PRES    VSBY  WAVE
                 AIR SEA DIR/SP/G                  HT/PER
                 (F)     (DEG/KT/KT) (MB)    (MI)  (FT/S)
CALUMET HARBOR    78     180/ 13/ 19 1008.0F
MICHIGAN CITY     78     170/ 19/ 24   N/A
BURNS HARBOR      78     190/ 19/ 24 1009.5R
SOUTH LAKE BUOY   66 60  190/ 14/ 16 1008.0R         4/ 5
4 MI NW BRIDGMAN  74 67  190/ 17/ 23 1009.2          3/ 3
MICHIGAN CITY     75 65  190/ 17/ 23   N/A           3/ 3

$$
&&



USA.gov is the U.S. government's official web portal to all federal, state and local government web resources and services.